Temperature
18 18 18 18 18 18 18 18 18 18 18 18 18 18 18 18 18 18 18 18 18 18 18 18 18 18 18 17 17 17 17 17 17 17 17 17 16 16 16 16 16 16 16
18 18 18 18 18 18 18 18 18 18 18 18 18 18 18 18 18 18 18 18 18 18 18 18 18 18 18 17 17 17 17 17 17 17 17 17 16 16 16 16 16 16 16
18 18 18 18 18 18 18 18 18 18 18 18 18 18 18 18 18 18 18 18 18 18 18 18 18 18 18 17 17 17 17 17 17 17 17 17 16 16 16 16 16 16 16
18 18 18 18 18 18 18 18 18 18 18 18 18 18 18 18 18 18 18 18 18 18 18 18 18 18 18 17 17 17 17 17 17 17 17 16 16 16 16 16 16 16 16
18 18 18 18 18 18 18 18 18 18 18 18 18 18 18 18 18 18 18 18 18 18 18 18 18 18 18 18 17 17 17 17 17 17 17 17 16 16 16 16 16 16 16
19 18 18 18 18 18 18 18 18 18 18 18 18 18 18 18 18 18 18 18 18 18 18 18 18 18 18 17 17 17 17 17 17 17 17 17 16 16 16 16 16 16 16
19 19 18 18 18 18 18 18 18 18 18 18 18 18 18 18 18 18 18 18 18 18 18 18 18 18 18 17 17 17 17 17 17 17 17 16 16 16 16 16 16 16 16
19 19 18 18 18 18 18 18 18 18 18 18 18 18 18 18 18 18 18 18 18 18 18 18 18 18 18 17 17 17 17 17 17 17 17 16 16 16 16 16 16 16 16
19 19 19 18 18 18 18 18 18 18 18 18 18 18 18 18 18 18 18 18 18 18 18 18 18 18 17 17 17 17 17 17 17 17 16 16 16 16 16 16 16 16 16
19 19 19 19 19 18 18 18 18 18 18 18 18 18 18 18 17 18 18 18 18 18 18 18 18 17 17 17 17 17 17 17 17 16 16 16 16 16 16 16 16 16 16
19 19 19 19 19 19 19 18 18 18 18 18 18 18 18 18 18 17 17 18 18 18 18 18 18 17 17 17 17 17 17 17 17 16 16 16 16 16 16 16 16 16 15
19 19 19 19 19 18 19 18 18 18 18 18 18 18 18 18 18 18 17 17 18 18 18 17 17 17 17 17 17 17 17 17 16 16 16 16 16 16 16 16 16 15 15
19 19 19 19 19 19 18 18 18 18 18 18 18 18 18 18 18 17 17 17 17 17 17 17 17 17 17 17 17 17 16 16 16 16 16 16 16 16 16 16 15 15 15
19 19 19 19 19 19 18 18 18 18 18 18 18 18 18 18 17 17 17 17 17 17 17 17 17 17 17 16 16 16 16 16 16 16 16 16 16 15 15 15 15 15 15
19 19 19 19 19 19 18 18 18 18 18 18 18 18 18 18 17 17 17 17 17 16 17 17 17 17 16 16 16 16 16 16 16 16 16 15 15 15 15 15 15 15 15
19 19 19 19 19 19 18 18 18 18 18 18 18 18 18 17 17 17 17 17 17 17 16 16 16 16 16 16 16 16 16 16 16 15 15 15 15 15 15 15 15 15 14
19 19 19 19 19 19 19 18 18 18 18 18 18 18 17 17 17 17 17 17 17 17 16 16 16 16 16 16 16 16 15 15 15 15 15 15 15 15 15 14 14 14 14
19 19 19 19 19 18 18 18 18 18 18 18 18 17 17 17 17 17 17 17 17 17 16 16 16 16 16 15 15 15 15 15 15 15 15 15 14 14 14 14 14 14 14
19 19 19 19 19 18 18 18 18 18 18 18 18 17 17 17 17 17 17 17 16 16 16 16 16 16 15 15 15 15 15 15 14 14 14 14 14 14 14 14 14 14 13
19 19 19 19 18 18 18 18 18 18 18 18 17 17 17 17 17 17 17 16 16 16 16 16 16 16 15 15 15 15 15 14 14 14 14 14 14 14 14 13 13 13 13
19 19 18 18 18 18 18 18 18 18 18 17 17 17 17 17 17 17 16 16 16 16 16 16 15 15 15 15 15 15 14 14 14 14 14 14 13 13 13 13 13 13 13
19 18 18 18 18 18 18 18 18 17 17 17 17 17 17 17 16 16 16 16 16 16 16 16 15 15 15 15 15 14 14 14 14 14 13 13 13 13 13 13 13 12 12
18 18 18 18 18 18 18 17 17 17 17 17 17 17 16 16 16 16 16 16 16 16 15 15 15 15 15 15 15 14 14 14 14 14 13 13 13 13 12 12 12 12 12
18 18 18 18 17 17 17 17 17 17 17 17 16 16 16 16 16 16 15 15 15 15 15 15 15 15 15 14 14 14 14 14 13 13 13 13 13 13 12 12 12 12 11
18 18 18 17 17 17 17 17 16 16 16 16 16 16 16 16 16 15 15 15 15 15 15 15 15 15 14 14 14 14 13 13 13 13 12 12 12 12 12 12 12 11 11
17 17 17 17 17 17 17 16 16 16 16 16 16 15 15 15 15 15 15 15 14 15 14 14 14 14 14 14 14 13 13 13 13 12 12 12 12 11 11 11 11 11 11
Wind_Speed
4 4 4 5 5 6 5 4 3 3 3 4 4 3 3 5 7 9 10 14 15 15 15 15 15 14 14 14 13 13 13 13 12 12 12 12 12 11 11 11 10 10 10
5 5 4 4 5 6 6 5 5 3 3 3 3 3 3 4 6 8 10 13 16 16 16 16 16 15 15 15 15 15 14 14 14 13 13 13 13 13 12 12 11 11 11
7 5 4 4 5 7 6 4 4 3 2 2 3 3 3 4 6 8 9 10 12 15 16 16 16 16 16 16 15 16 15 15 15 15 14 14 14 14 14 13 13 12 12
9 6 4 4 5 5 4 3 3 2 2 2 2 2 2 3 5 7 9 10 11 11 14 17 17 17 17 17 16 16 16 16 16 15 15 15 15 15 15 14 14 14 13
9 7 4 4 5 3 3 3 3 3 2 2 2 2 2 3 3 5 6 8 10 11 11 14 16 17 17 17 17 17 16 17 17 16 16 15 15 15 15 15 15 15 14
8 7 4 4 4 3 3 2 3 2 2 2 2 1 2 3 2 3 5 6 8 10 11 11 12 14 17 17 17 17 17 17 17 17 16 16 16 16 16 16 16 15 14
8 6 4 3 4 4 4 4 2 2 1 1 1 2 3 2 2 3 3 3 5 7 9 10 10 10 11 16 17 17 17 17 17 17 17 16 16 16 16 16 16 15 15
7 6 5 4 4 4 3 4 3 2 1 2 2 1 2 4 3 3 2 3 4 4 5 9 10 10 10 10 13 16 17 17 17 16 16 15 15 15 16 16 15 16 15
7 6 6 5 4 4 4 4 4 4 3 2 3 3 3 3 3 3 2 2 2 3 3 5 8 10 11 10 10 13 15 15 15 15 15 15 14 14 14 14 14 14 14
5 6 6 5 5 4 4 4 4 4 4 3 2 2 3 4 2 2 3 2 2 3 4 4 5 7 9 9 9 10 12 14 14 14 13 13 13 13 13 13 13 14 14
4 5 5 5 5 4 4 4 4 4 4 4 3 2 2 2 2 2 3 3 2 2 3 3 2 4 7 8 8 8 11 13 12 12 11 11 11 12 12 12 12 13 14
3 4 5 5 5 4 5 4 4 4 4 4 3 3 3 3 3 3 3 3 3 3 2 2 2 3 5 7 7 8 9 10 10 9 10 10 10 10 11 11 11 11 12
3 5 5 5 4 5 4 4 4 4 4 4 4 3 3 4 3 3 3 3 2 2 1 1 2 3 4 4 5 8 8 8 9 8 8 8 8 8 8 8 8 8 9
5 5 5 5 5 5 5 4 4 4 3 3 4 3 3 3 3 3 3 3 2 2 1 2 1 2 3 4 5 7 6 8 8 8 7 7 7 6 6 7 7 7 8
5 6 6 5 5 5 5 4 3 3 3 3 3 3 2 3 2 2 3 4 4 2 3 3 1 1 3 4 6 6 6 7 7 7 7 7 7 6 6 6 6 6 6
5 5 5 6 5 5 5 4 3 3 4 3 3 3 3 2 2 2 2 2 3 4 3 3 2 2 2 3 5 6 6 7 7 7 7 6 6 5 5 6 6 6 5
6 6 6 6 5 5 5 5 4 4 5 4 4 4 4 3 2 2 2 2 2 3 3 2 1 1 1 2 3 4 4 5 5 7 7 6 6 5 5 5 5 5 6
6 6 6 6 6 5 5 4 5 5 5 5 5 5 5 3 4 3 3 3 2 3 3 3 2 2 3 3 3 3 3 4 5 6 7 7 6 6 5 5 5 5 6
5 5 6 6 5 5 5 5 5 4 5 5 5 5 5 4 4 3 3 3 2 2 2 3 2 2 2 2 2 2 2 1 3 5 6 7 6 6 6 6 5 6 6
6 5 6 6 6 5 5 5 5 4 4 4 4 5 5 5 5 4 3 3 3 2 2 2 2 2 2 2 2 2 2 1 2 2 4 4 5 6 6 6 6 6 7
6 6 5 5 5 5 5 5 5 5 4 4 4 4 5 5 6 5 4 4 4 3 3 3 3 2 2 2 3 3 3 2 2 2 2 2 3 3 5 6 7 7 7
5 5 5 5 5 5 6 7 6 4 4 4 4 4 4 4 5 6 6 7 6 5 5 4 4 4 5 4 3 3 3 2 2 3 3 3 3 3 4 6 7 8 8
5 5 6 5 5 6 7 8 8 5 4 4 4 3 3 3 4 3 4 4 5 6 7 6 5 6 5 6 5 4 4 4 4 3 3 3 2 3 4 6 9 9 9
5 6 6 6 5 5 7 7 8 5 4 4 4 4 4 3 3 4 3 2 3 3 5 5 5 6 6 5 6 6 6 3 1 1 3 3 2 3 3 4 8 10 10
5 5 5 5 5 5 7 8 7 3 3 4 4 3 4 4 5 5 4 3 3 3 2 3 4 3 4 5 6 4 3 3 2 2 2 3 2 1 1 2 5 9 10
4 4 4 4 5 4 5 7 8 4 4 3 3 3 4 4 5 6 4 4 4 3 1 1 0 0 0 1 4 5 5 4 2 2 3 3 2 2 1 2 2 5 7
Wind_Direction
170 174 180 182 191 191 189 194 207 216 227 234 231 225 200 185 184 186 191 195 197 196 196 195 196 199 200 199 200 200 200 200 200 200 202 201 201 200 200 201 201 203 203
170 169 176 183 195 198 198 196 205 199 208 211 224 219 195 191 187 188 194 199 203 202 202 202 203 205 206 206 206 205 206 207 206 207 208 207 207 205 204 206 209 210 211
174 169 169 182 195 198 195 191 194 184 190 199 216 224 210 200 191 196 197 199 205 208 208 209 211 211 211 212 212 210 210 210 210 210 212 213 212 212 211 212 213 214 217
179 169 172 193 194 186 172 172 176 172 200 207 219 238 232 206 202 198 198 201 203 209 213 216 217 217 216 216 216 214 212 212 214 215 216 216 216 216 215 217 218 218 219
180 173 178 194 188 177 179 189 178 174 189 209 229 237 238 229 216 203 197 201 202 206 210 218 220 219 220 220 218 217 215 217 218 220 220 219 219 218 218 219 222 224 223
178 171 180 192 177 169 181 183 178 177 180 196 237 266 261 248 226 206 208 204 205 208 210 213 217 222 224 223 221 220 219 219 220 221 222 222 222 221 220 222 223 226 228
180 174 178 180 172 175 183 180 170 171 188 159 87 337 326 295 250 229 216 203 205 207 207 212 214 219 226 227 226 224 223 222 222 220 221 223 225 225 223 221 223 225 227
185 183 173 179 178 171 176 182 169 162 199 160 144 122 333 331 311 261 229 205 203 202 211 218 214 215 218 217 223 226 227 227 225 223 222 223 225 226 225 225 226 227 227
193 190 179 176 178 174 183 190 180 170 190 209 172 158 172 234 287 308 278 239 206 208 222 220 215 215 217 214 217 225 228 228 227 226 224 224 223 222 223 225 228 228 227
192 189 177 176 178 179 186 197 185 176 171 196 215 207 191 177 191 295 314 293 253 233 228 229 219 210 210 208 210 218 225 228 228 228 225 223 223 224 226 227 230 230 229
194 188 181 179 184 187 192 195 182 183 182 187 193 201 214 203 186 194 272 299 304 265 230 217 201 197 198 196 199 211 225 223 218 221 223 223 223 223 225 228 231 233 231
203 203 188 182 188 191 194 194 192 188 196 197 195 190 188 192 200 191 224 256 272 276 243 205 194 195 189 192 202 205 210 209 205 211 219 223 224 222 223 225 230 235 237
204 210 198 189 191 198 197 191 189 200 199 198 204 207 204 210 191 184 196 235 256 277 291 237 210 189 190 187 195 197 196 190 192 200 208 212 216 218 218 219 224 231 235
206 202 196 195 196 194 199 190 193 206 200 206 218 212 214 227 202 189 188 188 236 284 291 261 264 192 181 180 187 184 181 182 185 192 200 204 205 210 216 218 222 227 228
204 200 197 196 200 197 194 181 190 202 196 203 211 205 210 227 216 203 186 175 179 217 248 247 232 217 183 178 182 174 172 173 180 186 194 202 204 206 208 211 213 217 218
202 195 198 194 193 194 193 187 193 199 199 214 212 212 220 225 220 211 192 184 177 184 218 231 226 229 200 184 182 176 177 175 182 188 193 197 197 199 202 204 206 205 198
192 193 197 194 194 197 193 191 203 199 207 219 222 217 226 214 211 221 198 184 186 173 201 239 225 205 181 185 172 178 183 182 187 188 190 192 193 197 200 203 204 199 189
196 196 192 192 201 206 203 198 215 215 214 221 226 223 228 218 211 214 203 205 202 192 185 216 220 195 201 196 187 181 188 196 196 197 194 195 195 197 199 202 202 201 199
195 195 189 190 196 199 200 206 212 213 217 222 222 219 222 214 226 225 212 210 210 205 181 185 207 198 199 183 168 184 189 202 210 208 203 205 204 202 201 201 200 199 198
193 193 194 194 196 198 200 206 204 207 218 224 224 220 217 214 221 220 215 210 200 196 187 181 194 194 194 181 161 187 209 224 221 206 204 207 209 211 212 208 203 199 196
194 194 193 196 194 194 205 203 203 203 208 220 229 226 223 223 218 208 208 203 195 198 192 192 200 194 200 185 201 193 200 199 229 203 195 213 204 213 220 218 212 207 202
193 190 197 198 199 208 205 197 191 200 203 211 224 230 235 230 225 218 213 204 195 196 200 201 208 211 217 208 192 186 178 177 233 216 185 226 197 216 222 216 216 209 205
196 197 205 204 209 215 206 201 195 190 202 214 219 225 234 231 209 217 219 210 214 211 198 195 209 218 213 206 188 192 195 192 212 202 167 221 213 225 222 221 212 206 203
204 204 204 204 210 219 209 204 195 194 204 217 219 215 216 221 212 200 193 205 228 237 222 210 213 222 220 205 195 197 196 190 208 195 157 200 216 223 221 214 215 210 208
207 208 202 200 204 218 205 195 177 179 206 228 231 221 212 217 221 197 184 207 234 265 251 206 205 213 212 197 180 159 159 160 217 238 195 181 205 204 211 225 217 209 210
209 206 208 203 201 207 198 189 181 180 203 231 242 234 223 221 217 192 188 195 219 243 209 148 174 276 234 167 174 184 184 184 186 219 208 174 178 150 232 254 213 204 211
Height
1541 1542 1543 1545 1546 1548 1549 1550 1551 1552 1553 1554 1554 1555 1555 1556 1556 1557 1557 1558 1558 1559 1559 1560 1561 1561 1562 1563 1564 1564 1565 1565 1566 1567 1568 1568 1569 1570 1570 1571 1572 1572 1573
1541 1542 1543 1545 1546 1548 1549 1550 1551 1552 1553 1554 1554 1555 1555 1555 1556 1556 1556 1557 1557 1558 1558 1559 1559 1560 1561 1561 1562 1563 1563 1564 1565 1565 1566 1567 1567 1568 1569 1569 1570 1571 1571
1542 1543 1543 1544 1546 1547 1549 1550 1551 1551 1552 1553 1553 1554 1554 1554 1555 1555 1556 1556 1556 1556 1557 1557 1558 1558 1559 1559 1560 1561 1561 1562 1563 1563 1564 1565 1566 1566 1567 1568 1568 1569 1569
1541 1542 1543 1544 1545 1547 1548 1549 1550 1551 1551 1552 1552 1553 1553 1553 1553 1554 1554 1554 1555 1555 1556 1556 1556 1557 1557 1557 1558 1559 1559 1560 1560 1561 1562 1562 1563 1564 1565 1565 1566 1566 1567
1541 1542 1543 1543 1544 1546 1547 1548 1549 1550 1550 1551 1551 1551 1551 1551 1552 1552 1552 1553 1553 1553 1554 1554 1554 1555 1555 1555 1555 1556 1556 1557 1558 1558 1559 1559 1560 1561 1562 1562 1563 1564 1564
1540 1541 1542 1542 1543 1544 1545 1546 1547 1548 1548 1549 1549 1549 1549 1549 1550 1550 1550 1550 1551 1551 1551 1552 1552 1552 1552 1553 1553 1553 1554 1554 1555 1555 1556 1556 1557 1558 1559 1559 1560 1560 1561
1539 1540 1540 1541 1542 1543 1544 1545 1545 1546 1546 1547 1548 1548 1548 1548 1548 1548 1548 1548 1549 1549 1549 1549 1550 1550 1550 1550 1551 1551 1551 1552 1552 1552 1553 1553 1554 1554 1555 1556 1556 1557 1557
1538 1539 1539 1540 1541 1542 1542 1543 1544 1544 1545 1546 1546 1546 1546 1547 1545 1545 1546 1546 1546 1546 1547 1547 1547 1547 1547 1547 1547 1548 1548 1549 1549 1549 1550 1550 1550 1551 1551 1552 1552 1553 1553
1537 1538 1538 1539 1540 1540 1541 1541 1542 1542 1542 1543 1544 1545 1544 1543 1543 1543 1543 1543 1544 1544 1544 1544 1544 1544 1545 1544 1545 1545 1545 1545 1546 1546 1546 1546 1546 1547 1547 1548 1548 1549 1549
1536 1537 1537 1538 1538 1538 1539 1539 1539 1540 1540 1541 1542 1542 1543 1542 1542 1541 1541 1541 1541 1541 1542 1542 1541 1541 1542 1542 1542 1542 1542 1542 1542 1543 1543 1543 1543 1543 1543 1544 1544 1544 1545
1534 1535 1535 1536 1536 1537 1537 1537 1537 1538 1538 1539 1539 1539 1540 1540 1540 1540 1539 1539 1539 1539 1539 1539 1539 1538 1539 1539 1539 1538 1538 1538 1539 1539 1539 1539 1539 1539 1539 1540 1540 1540 1541
1532 1533 1534 1534 1534 1535 1535 1536 1536 1536 1536 1536 1537 1537 1537 1537 1537 1537 1536 1536 1536 1536 1536 1536 1536 1536 1536 1536 1535 1535 1535 1535 1535 1535 1535 1536 1536 1535 1535 1535 1536 1536 1537
1530 1531 1532 1532 1532 1533 1533 1534 1534 1534 1534 1534 1534 1534 1534 1534 1534 1534 1534 1534 1534 1534 1533 1533 1533 1533 1533 1533 1532 1532 1532 1532 1532 1532 1532 1532 1532 1532 1532 1532 1532 1533 1533
1528 1529 1530 1530 1531 1531 1531 1532 1532 1532 1532 1532 1531 1531 1531 1531 1532 1531 1532 1532 1531 1531 1531 1530 1530 1530 1530 1529 1529 1529 1528 1528 1528 1529 1529 1528 1528 1529 1529 1529 1529 1529 1530
1527 1527 1528 1528 1528 1529 1529 1529 1530 1529 1530 1530 1529 1529 1529 1529 1529 1529 1529 1529 1529 1528 1527 1527 1527 1527 1527 1527 1526 1526 1525 1525 1525 1525 1526 1526 1526 1526 1525 1526 1526 1526 1526
1524 1525 1526 1526 1526 1526 1527 1527 1527 1527 1527 1527 1527 1527 1526 1526 1526 1526 1526 1526 1526 1526 1525 1525 1525 1525 1525 1524 1524 1523 1523 1523 1523 1523 1523 1523 1523 1523 1523 1523 1523 1523 1523
1521 1522 1523 1523 1524 1524 1524 1524 1524 1525 1524 1524 1524 1524 1523 1523 1523 1523 1523 1523 1523 1523 1522 1522 1522 1522 1522 1522 1521 1521 1520 1520 1520 1520 1520 1520 1520 1521 1521 1520 1520 1520 1521
1518 1519 1519 1520 1521 1521 1521 1521 1521 1522 1522 1522 1521 1521 1521 1520 1520 1520 1520 1520 1520 1520 1519 1518 1519 1519 1519 1519 1519 1518 1518 1518 1518 1518 1518 1518 1518 1518 1518 1518 1518 1518 1518
1515 1516 1516 1517 1517 1518 1518 1518 1519 1519 1519 1519 1518 1518 1518 1518 1517 1517 1517 1516 1516 1516 1516 1516 1515 1516 1516 1516 1516 1516 1515 1515 1515 1516 1516 1516 1516 1516 1516 1516 1516 1516 1516
1512 1512 1513 1513 1514 1515 1515 1515 1516 1515 1515 1516 1516 1515 1515 1514 1514 1514 1514 1513 1513 1513 1513 1513 1513 1513 1513 1513 1513 1512 1512 1513 1513 1513 1513 1513 1514 1513 1513 1514 1514 1514 1514
1508 1509 1509 1510 1510 1511 1511 1512 1512 1512 1512 1512 1512 1512 1512 1511 1511 1510 1510 1510 1510 1510 1509 1509 1509 1509 1509 1509 1509 1509 1509 1510 1510 1510 1510 1511 1511 1511 1511 1511 1511 1511 1511
1504 1505 1505 1506 1506 1507 1507 1508 1508 1508 1508 1508 1508 1508 1508 1508 1507 1507 1506 1506 1506 1506 1506 1506 1505 1505 1505 1506 1506 1506 1507 1507 1507 1508 1508 1508 1508 1508 1508 1508 1508 1508 1508
1500 1500 1501 1502 1502 1503 1503 1504 1504 1505 1505 1505 1505 1505 1504 1504 1504 1503 1503 1503 1502 1502 1503 1503 1502 1502 1502 1502 1503 1503 1503 1503 1504 1505 1505 1504 1505 1505 1505 1505 1505 1505 1505
1496 1496 1496 1497 1498 1499 1499 1500 1500 1501 1501 1501 1502 1501 1501 1501 1500 1500 1500 1499 1499 1498 1498 1498 1498 1498 1499 1499 1499 1500 1500 1500 1501 1501 1501 1501 1501 1502 1502 1502 1503 1503 1502
1493 1493 1493 1493 1494 1494 1495 1495 1495 1496 1497 1497 1498 1498 1498 1498 1497 1497 1497 1496 1496 1495 1495 1495 1494 1494 1495 1495 1496 1496 1496 1496 1496 1497 1497 1498 1498 1498 1498 1499 1499 1500 1500
1489 1489 1489 1490 1490 1490 1491 1491 1491 1492 1493 1494 1494 1494 1494 1494 1494 1494 1493 1493 1492 1492 1492 1491 1491 1491 1491 1491 1491 1492 1492 1492 1492 1493 1493 1494 1494 1495 1495 1495 1496 1496 1496